Time,TemperatureF,DewpointF,PressureIn,WindDirection,WindDirectionDegrees,WindSpeedMPH,WindSpeedGustMPH,Humidity,HourlyPrecipIn,Conditions,Clouds,dailyrainin,SoftwareType,DateUTC
2013-01-21 00:03:00,12.0,9.0,-100.00,West,260,4.0,6.0,84,0.00,,,-99.99,,2013-01-21 06:03:00,
2013-01-21 00:12:00,12.0,9.0,-100.00,West,270,6.0,7.0,86,0.00,,,-99.99,,2013-01-21 06:12:00,
2013-01-21 00:23:00,12.0,9.0,-100.00,NE,35,5.0,7.0,86,0.00,,,-99.99,,2013-01-21 06:23:00,
2013-01-21 00:33:00,13.0,10.0,-100.00,NNE,15,7.0,8.0,86,0.00,,,-99.99,,2013-01-21 06:33:00,
2013-01-21 00:43:00,13.0,10.0,-100.00,NNE,15,7.0,8.0,86,0.00,,,-99.99,,2013-01-21 06:43:00,
2013-01-21 00:52:00,14.0,10.0,-100.00,North,5,4.0,6.0,86,0.00,,,-99.99,,2013-01-21 06:52:00,
2013-01-21 01:03:00,14.0,10.0,-100.00,North,5,4.0,6.0,86,0.00,,,-99.99,,2013-01-21 07:03:00,
2013-01-21 01:12:00,14.0,11.0,-100.00,NNW,330,2.0,5.0,86,0.00,,,-99.99,,2013-01-21 07:12:00,
2013-01-21 01:22:00,14.0,11.0,-100.00,NW,325,4.0,6.0,86,0.00,,,-99.99,,2013-01-21 07:22:00,
2013-01-21 01:33:00,15.0,11.0,-100.00,NW,320,5.0,7.0,87,0.00,,,-99.99,,2013-01-21 07:33:00,
2013-01-21 01:42:00,15.0,11.0,-100.00,NW,320,5.0,7.0,87,0.00,,,-99.99,,2013-01-21 07:42:00,
2013-01-21 01:52:00,15.0,12.0,-100.00,North,350,6.0,9.0,86,0.00,,,-99.99,,2013-01-21 07:52:00,
2013-01-21 02:03:00,15.0,12.0,-100.00,North,350,6.0,9.0,86,0.00,,,-99.99,,2013-01-21 08:03:00,
2013-01-21 02:13:00,15.0,12.0,-100.00,North,355,8.0,10.0,85,0.00,,,-99.99,,2013-01-21 08:13:00,
2013-01-21 02:22:00,16.0,12.0,-100.00,North,0,7.0,9.0,85,0.00,,,-99.99,,2013-01-21 08:22:00,
2013-01-21 02:32:00,16.0,12.0,-100.00,North,350,7.0,11.0,83,0.00,,,-99.99,,2013-01-21 08:32:00,
2013-01-21 02:42:00,16.0,12.0,-100.00,North,350,7.0,11.0,83,0.00,,,-99.99,,2013-01-21 08:42:00,
2013-01-21 02:53:00,16.0,12.0,-100.00,North,0,9.0,13.0,83,0.00,,,-99.99,,2013-01-21 08:53:00,
2013-01-21 03:02:00,16.0,12.0,-100.00,North,0,9.0,13.0,83,0.00,,,-99.99,,2013-01-21 09:02:00,
2013-01-21 03:12:00,16.0,12.0,-100.00,North,0,10.0,14.0,83,0.00,,,-99.99,,2013-01-21 09:12:00,
2013-01-21 03:22:00,16.0,12.0,-100.00,North,350,7.0,11.0,83,0.00,,,-99.99,,2013-01-21 09:22:00,
2013-01-21 03:33:00,16.0,12.0,-100.00,North,0,12.0,16.0,83,0.00,,,-99.99,,2013-01-21 09:33:00,
2013-01-21 03:42:00,16.0,12.0,-100.00,North,0,12.0,16.0,83,0.00,,,-99.99,,2013-01-21 09:42:00,
2013-01-21 03:52:00,17.0,11.0,-100.00,North,0,13.0,19.0,78,0.00,,,-99.99,,2013-01-21 09:52:00,
2013-01-21 04:02:00,17.0,11.0,-100.00,North,0,13.0,19.0,78,0.00,,,-99.99,,2013-01-21 10:02:00,
2013-01-21 04:12:00,16.0,11.0,-100.00,North,5,16.0,18.0,77,0.00,,,-99.99,,2013-01-21 10:12:00,
2013-01-21 04:22:00,16.0,10.0,-100.00,NNE,20,17.0,22.0,77,0.00,,,-99.99,,2013-01-21 10:22:00,
2013-01-21 04:32:00,15.0,9.0,-100.00,North,10,17.0,23.0,76,0.00,,,-99.99,,2013-01-21 10:32:00,
2013-01-21 04:42:00,15.0,9.0,-100.00,North,10,17.0,23.0,76,0.00,,,-99.99,,2013-01-21 10:42:00,
2013-01-21 04:52:00,15.0,9.0,-100.00,North,0,14.0,17.0,75,0.00,,,-99.99,,2013-01-21 10:52:00,
2013-01-21 05:02:00,15.0,9.0,-100.00,North,0,14.0,17.0,75,0.00,,,-99.99,,2013-01-21 11:02:00,
2013-01-21 05:13:00,15.0,8.0,-100.00,North,5,15.0,18.0,73,0.00,,,-99.99,,2013-01-21 11:13:00,
2013-01-21 05:23:00,15.0,8.0,-100.00,North,10,14.0,17.0,73,0.00,,,-99.99,,2013-01-21 11:23:00,
2013-01-21 05:33:00,15.0,7.0,-100.00,North,10,11.0,14.0,72,0.00,,,-99.99,,2013-01-21 11:33:00,
2013-01-21 05:42:00,15.0,7.0,-100.00,North,10,11.0,14.0,72,0.00,,,-99.99,,2013-01-21 11:42:00,
2013-01-21 05:53:00,14.0,6.0,-100.00,North,355,13.0,19.0,70,0.00,,,-99.99,,2013-01-21 11:53:00,
2013-01-21 06:02:00,14.0,6.0,-100.00,North,355,13.0,19.0,70,0.00,,,-99.99,,2013-01-21 12:02:00,
2013-01-21 06:12:00,14.0,6.0,-100.00,North,355,13.0,19.0,69,0.00,,,-99.99,,2013-01-21 12:12:00,
2013-01-21 06:22:00,14.0,6.0,-100.00,North,350,14.0,21.0,68,0.00,,,-99.99,,2013-01-21 12:22:00,
2013-01-21 06:32:00,13.0,4.0,-100.00,North,355,18.0,23.0,65,0.00,,,-99.99,,2013-01-21 12:32:00,
2013-01-21 06:42:00,14.0,3.0,-100.00,North,355,17.0,21.0,61,0.00,,,-99.99,,2013-01-21 12:42:00,
2013-01-21 06:52:00,13.0,1.0,-100.00,North,0,18.0,23.0,57,0.00,,,-99.99,,2013-01-21 12:52:00,
2013-01-21 07:02:00,13.0,1.0,-100.00,North,0,18.0,23.0,57,0.00,,,-99.99,,2013-01-21 13:02:00,
2013-01-21 07:12:00,13.0,1.0,-100.00,North,0,14.0,24.0,57,0.00,,,-99.99,,2013-01-21 13:12:00,
2013-01-21 07:23:00,12.0,0.0,-100.00,NNE,20,16.0,19.0,58,0.00,,,-99.99,,2013-01-21 13:23:00,
2013-01-21 07:33:00,11.0,-1.0,-100.00,NNE,25,14.0,20.0,58,0.00,,,-99.99,,2013-01-21 13:33:00,
2013-01-21 07:42:00,11.0,-1.0,-100.00,NNE,25,14.0,20.0,58,0.00,,,-99.99,,2013-01-21 13:42:00,
2013-01-21 07:53:00,11.0,-1.0,-100.00,North,0,12.0,19.0,56,0.00,,,-99.99,,2013-01-21 13:53:00,
2013-01-21 08:03:00,11.0,-1.0,-100.00,North,0,12.0,19.0,56,0.00,,,-99.99,,2013-01-21 14:03:00,
2013-01-21 08:12:00,11.0,-2.0,-100.00,North,5,15.0,19.0,56,0.00,,,-99.99,,2013-01-21 14:12:00,
2013-01-21 08:23:00,11.0,-2.0,-100.00,North,0,14.0,20.0,55,0.00,,,-99.99,,2013-01-21 14:23:00,
2013-01-21 08:32:00,10.0,-2.0,-100.00,NNE,25,14.0,17.0,56,0.00,,,-99.99,,2013-01-21 14:32:00,
2013-01-21 08:43:00,10.0,-2.0,-100.00,NNE,25,14.0,17.0,56,0.00,,,-99.99,,2013-01-21 14:43:00,
2013-01-21 08:52:00,10.0,-2.0,-100.00,NE,35,12.0,19.0,58,0.00,,,-99.99,,2013-01-21 14:52:00,
2013-01-21 09:03:00,10.0,-2.0,-100.00,NE,35,12.0,19.0,58,0.00,,,-99.99,,2013-01-21 15:03:00,
2013-01-21 09:13:00,9.0,-2.0,-100.00,NNE,30,12.0,18.0,58,0.00,,,-99.99,,2013-01-21 15:13:00,
2013-01-21 09:23:00,9.0,-2.0,-100.00,NNE,25,13.0,15.0,59,0.00,,,-99.99,,2013-01-21 15:23:00,
2013-01-21 09:33:00,9.0,-2.0,-100.00,NNE,25,11.0,14.0,59,0.00,,,-99.99,,2013-01-21 15:33:00,
2013-01-21 09:43:00,9.0,-2.0,-100.00,NNE,25,11.0,14.0,59,0.00,,,-99.99,,2013-01-21 15:43:00,
2013-01-21 09:52:00,10.0,-2.0,-100.00,North,350,12.0,18.0,57,0.00,,,-99.99,,2013-01-21 15:52:00,
2013-01-21 10:03:00,10.0,-2.0,-100.00,North,350,12.0,18.0,57,0.00,,,-99.99,,2013-01-21 16:03:00,
2013-01-21 10:12:00,10.0,-2.0,-100.00,North,0,12.0,17.0,55,0.00,,,-99.99,,2013-01-21 16:12:00,
2013-01-21 10:23:00,11.0,-2.0,-100.00,North,0,15.0,20.0,55,0.00,,,-99.99,,2013-01-21 16:23:00,
2013-01-21 10:33:00,10.0,-3.0,-100.00,North,0,16.0,19.0,53,0.00,,,-99.99,,2013-01-21 16:33:00,
2013-01-21 10:43:00,10.0,-3.0,-100.00,North,0,16.0,19.0,53,0.00,,,-99.99,,2013-01-21 16:43:00,
2013-01-21 10:53:00,10.0,-3.0,-100.00,North,0,12.0,17.0,53,0.00,,,-99.99,,2013-01-21 16:53:00,
2013-01-21 11:02:00,10.0,-3.0,-100.00,North,0,12.0,17.0,53,0.00,,,-99.99,,2013-01-21 17:02:00,
2013-01-21 11:12:00,10.0,-3.0,-100.00,North,0,15.0,18.0,53,0.00,,,-99.99,,2013-01-21 17:12:00,
2013-01-21 11:22:00,10.0,-3.0,-100.00,North,10,10.0,17.0,53,0.00,,,-99.99,,2013-01-21 17:22:00,
2013-01-21 11:33:00,10.0,-3.0,-100.00,NNE,30,7.0,14.0,54,0.00,,,-99.99,,2013-01-21 17:33:00,
2013-01-21 11:42:00,10.0,-3.0,-100.00,NNE,30,7.0,14.0,54,0.00,,,-99.99,,2013-01-21 17:42:00,
2013-01-21 11:52:00,11.0,-3.0,-100.00,North,350,9.0,13.0,54,0.00,,,-99.99,,2013-01-21 17:52:00,
2013-01-21 12:03:00,11.0,-3.0,-100.00,North,350,9.0,13.0,54,0.00,,,-99.99,,2013-01-21 18:03:00,
2013-01-21 12:12:00,10.0,-3.0,-100.00,North,5,11.0,13.0,54,0.00,,,-99.99,,2013-01-21 18:12:00,
2013-01-21 12:22:00,10.0,-3.0,-100.00,North,0,11.0,13.0,54,0.00,,,-99.99,,2013-01-21 18:22:00,
2013-01-21 12:33:00,11.0,-3.0,-100.00,North,355,10.0,15.0,54,0.00,,,-99.99,,2013-01-21 18:33:00,
2013-01-21 12:42:00,11.0,-3.0,-100.00,North,355,10.0,15.0,54,0.00,,,-99.99,,2013-01-21 18:42:00,
2013-01-21 12:52:00,11.0,-3.0,-100.00,NNW,345,11.0,16.0,54,0.00,,,-99.99,,2013-01-21 18:52:00,
2013-01-21 13:03:00,11.0,-3.0,-100.00,NNW,345,11.0,16.0,54,0.00,,,-99.99,,2013-01-21 19:03:00,
2013-01-21 13:12:00,10.0,-3.0,-100.00,North,0,11.0,14.0,54,0.00,,,-99.99,,2013-01-21 19:12:00,
2013-01-21 13:22:00,11.0,-2.0,-100.00,North,355,9.0,14.0,54,0.00,,,-99.99,,2013-01-21 19:22:00,
2013-01-21 13:33:00,11.0,-3.0,-100.00,North,350,8.0,14.0,52,0.00,,,-99.99,,2013-01-21 19:33:00,
2013-01-21 13:42:00,11.0,-3.0,-100.00,North,350,8.0,14.0,52,0.00,,,-99.99,,2013-01-21 19:42:00,
2013-01-21 13:52:00,11.0,-3.0,-100.00,NW,325,7.0,14.0,52,0.00,,,-99.99,,2013-01-21 19:52:00,
2013-01-21 14:03:00,11.0,-3.0,-100.00,NW,325,7.0,14.0,52,0.00,,,-99.99,,2013-01-21 20:03:00,
2013-01-21 14:12:00,11.0,-3.0,-100.00,NNW,335,9.0,14.0,52,0.00,,,-99.99,,2013-01-21 20:12:00,
2013-01-21 14:22:00,12.0,-2.0,-100.00,NNW,335,9.0,12.0,52,0.00,,,-99.99,,2013-01-21 20:22:00,
2013-01-21 14:33:00,11.0,-3.0,-100.00,North,350,11.0,14.0,51,0.00,,,-99.99,,2013-01-21 20:33:00,
2013-01-21 14:43:00,11.0,-3.0,-100.00,North,350,11.0,14.0,51,0.00,,,-99.99,,2013-01-21 20:43:00,
2013-01-21 14:53:00,12.0,-3.0,-100.00,North,0,9.0,12.0,50,0.00,,,-99.99,,2013-01-21 20:53:00,
2013-01-21 15:03:00,12.0,-3.0,-100.00,North,0,9.0,12.0,50,0.00,,,-99.99,,2013-01-21 21:03:00,
2013-01-21 15:12:00,12.0,-3.0,-100.00,North,0,11.0,14.0,50,0.00,,,-99.99,,2013-01-21 21:12:00,
2013-01-21 15:22:00,12.0,-3.0,-100.00,North,350,9.0,13.0,50,0.00,,,-99.99,,2013-01-21 21:22:00,
2013-01-21 15:33:00,12.0,-2.0,-100.00,NW,325,10.0,13.0,50,0.00,,,-99.99,,2013-01-21 21:33:00,
2013-01-21 15:43:00,12.0,-2.0,-100.00,NW,325,10.0,13.0,50,0.00,,,-99.99,,2013-01-21 21:43:00,
2013-01-21 15:53:00,12.0,-2.0,-100.00,North,350,9.0,12.0,51,0.00,,,-99.99,,2013-01-21 21:53:00,
2013-01-21 16:03:00,12.0,-2.0,-100.00,North,350,9.0,12.0,51,0.00,,,-99.99,,2013-01-21 22:03:00,
2013-01-21 16:12:00,12.0,-2.0,-100.00,NNW,340,7.0,13.0,51,0.00,,,-99.99,,2013-01-21 22:12:00,
2013-01-21 16:23:00,12.0,-2.0,-100.00,North,0,10.0,14.0,52,0.00,,,-99.99,,2013-01-21 22:23:00,
2013-01-21 16:33:00,12.0,-1.0,-100.00,NNW,340,7.0,14.0,54,0.00,,,-99.99,,2013-01-21 22:33:00,
2013-01-21 16:42:00,12.0,-1.0,-100.00,NNW,340,7.0,14.0,54,0.00,,,-99.99,,2013-01-21 22:42:00,
2013-01-21 16:52:00,12.0,-1.0,-100.00,North,350,11.0,14.0,54,0.00,,,-99.99,,2013-01-21 22:52:00,
2013-01-21 17:03:00,12.0,-1.0,-100.00,North,350,11.0,14.0,54,0.00,,,-99.99,,2013-01-21 23:03:00,
2013-01-21 17:12:00,13.0,-1.0,-100.00,North,350,9.0,14.0,54,0.00,,,-99.99,,2013-01-21 23:12:00,
2013-01-21 17:22:00,13.0,-1.0,-100.00,NNW,345,12.0,14.0,54,0.00,,,-99.99,,2013-01-21 23:22:00,
2013-01-21 17:33:00,12.0,-1.0,-100.00,North,350,8.0,12.0,53,0.00,,,-99.99,,2013-01-21 23:33:00,
2013-01-21 17:42:00,12.0,-1.0,-100.00,North,350,8.0,12.0,53,0.00,,,-99.99,,2013-01-21 23:42:00,
2013-01-21 17:53:00,13.0,-1.0,-100.00,NNW,340,9.0,12.0,52,0.00,,,-99.99,,2013-01-21 23:53:00,
2013-01-21 18:02:00,13.0,-1.0,-100.00,NNW,340,9.0,12.0,52,0.00,,,-99.99,,2013-01-22 00:02:00,
2013-01-21 18:12:00,13.0,-1.0,-100.00,NNW,345,7.0,11.0,52,0.00,,,-99.99,,2013-01-22 00:12:00,
2013-01-21 18:22:00,13.0,-1.0,-100.00,North,0,8.0,11.0,52,0.00,,,-99.99,,2013-01-22 00:22:00,
2013-01-21 18:33:00,13.0,-1.0,-100.00,NNW,340,6.0,10.0,52,0.00,,,-99.99,,2013-01-22 00:33:00,
2013-01-21 18:42:00,13.0,-1.0,-100.00,NNW,340,6.0,10.0,52,0.00,,,-99.99,,2013-01-22 00:42:00,
2013-01-21 18:53:00,13.0,-1.0,-100.00,North,350,9.0,11.0,52,0.00,,,-99.99,,2013-01-22 00:53:00,
2013-01-21 19:02:00,13.0,-1.0,-100.00,North,350,9.0,11.0,52,0.00,,,-99.99,,2013-01-22 01:02:00,
2013-01-21 19:12:00,13.0,-1.0,-100.00,North,0,7.0,9.0,52,0.00,,,-99.99,,2013-01-22 01:12:00,
2013-01-21 19:23:00,13.0,-1.0,-100.00,North,10,6.0,9.0,52,0.00,,,-99.99,,2013-01-22 01:23:00,
2013-01-21 19:32:00,13.0,-1.0,-100.00,North,5,5.0,7.0,52,0.00,,,-99.99,,2013-01-22 01:32:00,
2013-01-21 19:42:00,13.0,-1.0,-100.00,North,5,5.0,7.0,52,0.00,,,-99.99,,2013-01-22 01:42:00,
2013-01-21 19:52:00,14.0,0.0,-100.00,NNW,340,6.0,6.0,53,0.00,,,-99.99,,2013-01-22 01:52:00,
2013-01-21 20:02:00,14.0,0.0,-100.00,NNW,340,6.0,6.0,53,0.00,,,-99.99,,2013-01-22 02:02:00,
2013-01-21 20:12:00,14.0,0.0,-100.00,North,10,5.0,7.0,53,0.00,,,-99.99,,2013-01-22 02:12:00,
2013-01-21 20:22:00,14.0,0.0,-100.00,NNE,25,6.0,7.0,53,0.00,,,-99.99,,2013-01-22 02:22:00,
2013-01-21 20:32:00,14.0,0.0,-100.00,NNE,20,7.0,9.0,53,0.00,,,-99.99,,2013-01-22 02:32:00,
2013-01-21 20:42:00,14.0,0.0,-100.00,NNE,20,7.0,9.0,53,0.00,,,-99.99,,2013-01-22 02:42:00,
2013-01-21 20:53:00,14.0,0.0,-100.00,NNE,25,7.0,10.0,52,0.00,,,-99.99,,2013-01-22 02:53:00,
2013-01-21 21:02:00,14.0,0.0,-100.00,NNE,25,7.0,10.0,52,0.00,,,-99.99,,2013-01-22 03:02:00,
2013-01-21 21:12:00,14.0,0.0,-100.00,NNE,20,7.0,9.0,52,0.00,,,-99.99,,2013-01-22 03:12:00,
2013-01-21 21:22:00,14.0,0.0,-100.00,NNE,30,4.0,8.0,52,0.00,,,-99.99,,2013-01-22 03:22:00,
2013-01-21 21:32:00,14.0,0.0,-100.00,NNE,20,4.0,6.0,52,0.00,,,-99.99,,2013-01-22 03:32:00,
2013-01-21 21:42:00,14.0,0.0,-100.00,NNE,20,4.0,6.0,52,0.00,,,-99.99,,2013-01-22 03:42:00,
2013-01-21 21:52:00,14.0,0.0,-100.00,NE,55,4.0,5.0,52,0.00,,,-99.99,,2013-01-22 03:52:00,
2013-01-21 22:02:00,14.0,0.0,-100.00,NE,55,4.0,5.0,52,0.00,,,-99.99,,2013-01-22 04:02:00,
2013-01-21 22:12:00,14.0,0.0,-100.00,NE,50,2.0,4.0,52,0.00,,,-99.99,,2013-01-22 04:12:00,
2013-01-21 22:22:00,14.0,0.0,-100.00,ENE,60,4.0,4.0,53,0.00,,,-99.99,,2013-01-22 04:22:00,
2013-01-21 22:32:00,14.0,0.0,-100.00,NE,50,2.0,3.0,53,0.00,,,-99.99,,2013-01-22 04:32:00,
2013-01-21 22:42:00,14.0,0.0,-100.00,NE,50,2.0,3.0,53,0.00,,,-99.99,,2013-01-22 04:42:00,
2013-01-21 22:52:00,14.0,0.0,-100.00,East,80,2.0,3.0,53,0.00,,,-99.99,,2013-01-22 04:52:00,
2013-01-21 23:04:00,14.0,0.0,-100.00,East,80,2.0,3.0,53,0.00,,,-99.99,,2013-01-22 05:04:00,
2013-01-21 23:12:00,14.0,0.0,-100.00,ESE,105,1.0,4.0,53,0.00,,,-99.99,,2013-01-22 05:12:00,
2013-01-21 23:22:00,14.0,0.0,-100.00,East,90,1.0,2.0,53,0.00,,,-99.99,,2013-01-22 05:22:00,
2013-01-21 23:32:00,14.0,0.0,-100.00,SE,135,0.0,1.0,53,0.00,,,-99.99,,2013-01-22 05:32:00,
2013-01-21 23:42:00,14.0,0.0,-100.00,NNE,30,0.0,1.0,53,0.00,,,-99.99,,2013-01-22 05:42:00,
2013-01-21 23:52:00,14.0,0.0,-100.00,ESE,120,3.0,5.0,53,0.00,,,-99.99,,2013-01-22 05:52:00,